Regional Weather Roundup
Issued by NWS Northern Indiana

Home | Current Version | Previous Version | Graphics & Text | Print | Product List | Glossary On
Versions: 1 2 3 4 5 6 7 8 9 10 11 12 13 14 15 16 17 18 19 20 21 22 23 24 25 26 27 28 29 30 31 32 33 34 35 36 37 38 39 40 41 42 43 44 45 46 47 48 49 50
000
ASUS43 KIWX 051900
RWRIWX

KIWX WEATHER ROUNDUP
NATIONAL WEATHER SERVICE NORTHERN INDIANA
200 PM EST MON DEC 05 2016

NOTE: "FAIR" INDICATES FEW OR NO CLOUDS BELOW 12,000 FEET WITH NO
SIGNIFICANT WEATHER AND/OR OBSTRUCTIONS TO VISIBILITY.

* THESE STATIONS ARE NOT UNDER NWS QUALITY CONTROL. THEY ALSO MAY NOT
  REPORT WEATHER SUCH AS PRECIPITATION OR FOG.

INZ001>027-052000-
NORTHERN INDIANA

CITY           SKY/WX    TMP DP  RH WIND       PRES   REMARKS
SOUTH BEND     CLOUDY    32  30  92 S8        30.05F WCI  25
ELKHART*       CLOUDY    32  30  93 SW9       30.05F WCI  24
GOSHEN         CLOUDY    34  28  79 S9        30.05F WCI  27
ANGOLA*        CLOUDY    34  25  69 SW8       30.06F WCI  27
FORT WAYNE     CLOUDY    35  30  82 SW9       30.08F WCI  28
PERU/GRISSOM   CLOUDY    36  32  85 SE5       30.05F

$$
INZ028>050-052000-
CENTRAL INDIANA

CITY           SKY/WX    TMP DP  RH WIND       PRES   REMARKS
LAFAYETTE      PTSUNNY   38  34  85 E5        30.05F
KOKOMO*        CLOUDY    40  33  76 S6        30.07F
MUNCIE*        SUNNY     41  32  70 SE5       30.05F
INDIANAPOLIS   PTSUNNY   42  33  70 SE9       30.05F

$$
MIZ043>046-050>051-056>058-064>065-071>073-077>080-052000-
SOUTHWEST LOWER MICHIGAN

CITY           SKY/WX    TMP DP  RH WIND       PRES   REMARKS
BATTLE CREEK   CLOUDY    35  32  88 S15       30.04R WCI  25
BENTON HARBOR  CLOUDY    34  29  82 S9        30.05S WCI  27
COLDWATER*     CLOUDY    35  30  82 SW5       30.06S WCI  31
HILLSDALE*     CLOUDY    32  28  86 SW8       30.04S WCI  25
HOLLAND        PTSUNNY   40  34  79 S12       30.01S
GRAND RAPIDS   PTSUNNY   39  31  72 SW12      30.01S
KALAMAZOO      CLOUDY    34  29  82 S14       30.05R HAZE    WCI  25
STURGIS*       CLOUDY    34  30  85 SW9       30.04F WCI  27
THREE RIVERS*  CLOUDY    34  31  87 S12       30.06F WCI  26

$$
OHZ001>008-015>018-024>025-052000-
NORTHWEST OHIO

CITY           SKY/WX    TMP DP  RH WIND       PRES   REMARKS
DEFIANCE       CLOUDY    38  29  70 VRB5      30.08F
FINDLAY        CLOUDY    38  28  67 W9        30.08F
TOLEDO EXPRESS CLOUDY    36  30  79 SW8       30.08S
TOLEDO METCALF CLOUDY    38  30  73 SW10      30.09S
LIMA           CLOUDY    36  31  82 S9        30.08F

$$
AND FOR LAKE MICHIGAN COASTAL AND OPEN LAKE BUOY OBSERVATIONS

STATION/POSITION TEMP    WIND        PRES    VSBY  WAVE
                 AIR SEA DIR/SP/G                  HT/PER
                 (F)     (DEG/KT/KT) (MB)    (MI)  (FT/S)
CALUMET HARBOR    33     180/  7/ 15 1016.5F
BURNS HARBOR      34     200/ 13/ 18 1017.9F
SAINT JOSEPH      35     190/  8/ 14 1018.3

$$
&&



USA.gov is the U.S. government's official web portal to all federal, state and local government web resources and services.